Palm Springs, CA

12:53 AM PST on February 13, 2016 (GMT -0800)
Palm Springs International

Weather History for KPSP - July, 2006

Change the Weather History Date:

Tuesday, July 11, 2006

  Actual Average Record
Temperature  
Mean Temperature 96 °F 92 °F  
Max Temperature 111 °F 107 °F 121 °F (1958)
Min Temperature 81 °F 77 °F 59 °F (1936)
Degree Days  
Heating Degree Days 0 0  
Month to date heating degree days 0  
Since 1 June heating degree days 0  
Since 1 July heating degree days 0  
Cooling Degree Days 31 27  
Month to date cooling degree days 290  
Year to date cooling degree days 1696  
Since 1 June cooling degree days 937  
Growing Degree Days 46 (Base 50)    
Moisture  
Dew Point 41 °F    
Average Humidity 18    
Maximum Humidity 41    
Minimum Humidity 4    
Precipitation  
Precipitation 0.00 in 0.00 in 0.00 in (2016)
Month to date precipitation 0.01  
Year to date precipitation 2.95  
Snow  
Snow 0.00 in - - ()
Month to date snowfall  
Since 1 June snowfall  
Since 1 July snowfall  
Snow Depth -    
Sea Level Pressure  
Sea Level Pressure 29.73 in    
Wind  
Wind Speed 6 mph (NW)    
Max Wind Speed 17 mph    
Max Gust Speed 21 mph    
Visibility 10 miles    
Events      
T = Trace of Precipitation, MM = Missing Value Source: NWS Daily Summary

Daily Weather History Graph

Daily Weather History Graph

Search for Another Location

Airport or City:

Trip Planner

Search our weather history database for the weather conditions in past years. The results will help you decide how hot, cold, wet, or windy it might be!

Date:

Astronomy

Jul. 11, 2006 Rise Set
Actual Time 5:43 AM PDT 7:58 PM PDT
Civil Twilight 5:15 AM PDT 8:27 PM PDT
Nautical Twilight 4:40 AM PDT 9:02 PM PDT
Astronomical Twilight 4:02 AM PDT 9:40 PM PDT
Moon 9:02 PM PDT (7/11) 6:03 AM PDT (7/11)
Length of Visible Light 15h 12m
Length of Day
14h 15m
Waxing Gibbous, 99% of the Moon is Illuminated
Jul 11
Waxing Gibbous
Jul 17
Last Quarter
Jul 24
New
Aug 2
First Quarter
Aug 9
Full

Hourly Weather History & Observations

Time (PDT) Temp. Heat Index Dew Point Humidity Pressure Visibility Wind Dir Wind Speed Gust Speed Precip Events Conditions
12:53 AM 93.0 °F - 48.9 °F 22% 29.69 in 10.0 mi WNW 6.9 mph - N/A   Clear
1:53 AM 89.1 °F - 52.0 °F 28% 29.69 in 10.0 mi SSE 6.9 mph - N/A   Clear
2:53 AM 86.0 °F 84.2 °F 54.0 °F 33% 29.70 in 10.0 mi SSE 4.6 mph - N/A   Clear
3:53 AM 86.0 °F 84.0 °F 53.1 °F 32% 29.70 in 10.0 mi Calm Calm - N/A   Clear
4:53 AM 84.9 °F 83.2 °F 53.1 °F 33% 29.72 in 10.0 mi Calm Calm - N/A   Clear
5:53 AM 81.0 °F 80.7 °F 55.0 °F 41% 29.74 in 10.0 mi SSE 3.5 mph - N/A   Clear
6:53 AM 84.9 °F 83.6 °F 55.0 °F 36% 29.76 in 10.0 mi Calm Calm - N/A   Clear
7:53 AM 89.1 °F - 51.1 °F 27% 29.78 in 10.0 mi Calm Calm - N/A   Clear
8:53 AM 95.0 °F - 50.0 °F 22% 29.78 in 10.0 mi NNE 4.6 mph - N/A   Clear
9:53 AM 100.0 °F - 43.0 °F 14% 29.78 in 10.0 mi North 4.6 mph - N/A   Clear
10:53 AM 102.9 °F - 42.1 °F 13% 29.78 in 10.0 mi Variable 3.5 mph - N/A   Clear
11:53 AM 106.0 °F - 34.0 °F 8% 29.77 in 10.0 mi NW 8.1 mph - N/A   Clear
12:53 PM 108.0 °F - 33.1 °F 8% 29.75 in 10.0 mi Variable 5.8 mph - N/A   Clear
1:53 PM 111.0 °F - 33.1 °F 7% 29.73 in 10.0 mi NW 9.2 mph 18.4 mph N/A   Clear
2:53 PM 109.9 °F - 30.0 °F 6% 29.72 in 10.0 mi North 9.2 mph 20.7 mph N/A   Clear
3:53 PM 111.0 °F - 28.0 °F 6% 29.71 in 10.0 mi SSW 12.7 mph - N/A   Clear
4:53 PM 109.9 °F - 24.1 °F 5% 29.71 in 10.0 mi South 15.0 mph - N/A   Clear
5:53 PM 108.0 °F - 17.1 °F 4% 29.70 in 10.0 mi South 12.7 mph 19.6 mph N/A   Clear
6:53 PM 105.1 °F - 30.0 °F 7% 29.71 in 10.0 mi North 12.7 mph - N/A   Clear
7:53 PM 100.0 °F - 36.0 °F 11% 29.71 in 10.0 mi NNW 13.8 mph 20.7 mph N/A   Clear
8:53 PM 97.0 °F - 36.0 °F 12% 29.72 in 10.0 mi NW 13.8 mph - N/A   Clear
9:53 PM 95.0 °F - 41.0 °F 15% 29.74 in 10.0 mi NW 17.3 mph - N/A   Clear
10:53 PM 91.9 °F - 41.0 °F 17% 29.75 in 10.0 mi WNW 8.1 mph - N/A   Clear
11:53 PM 91.9 °F - 39.9 °F 16% 29.76 in 10.0 mi WNW 10.4 mph - N/A   Clear